Whiting Fld NAS, FL

8:57 PM CST on November 22, 2019 (GMT -0600)
Whiting Field Naval Air Station (North)

Weather History for KNSE - September, 2019

Change the Weather History Date:

Sunday, September 8, 2019

  Actual Average Record
Temperature  
Mean Temperature 84 °F -  
Max Temperature 96 °F 85 °F 96 °F (2019)
Min Temperature 73 °F 68 °F 59 °F (2017)
Cooling Degree Days 19    
Growing Degree Days 34 (Base 50)    
Moisture  
Dew Point 75 °F    
Average Humidity 81    
Maximum Humidity 100    
Minimum Humidity 49    
Precipitation  
Precipitation 0.00 in - - ()
Sea Level Pressure  
Sea Level Pressure 29.95 in    
Wind  
Wind Speed 3 mph (SW)    
Max Wind Speed 10 mph    
Max Gust Speed -    
Visibility 7 miles    
Events Fog    
Averages and records for this station are not official NWS values.
T = Trace of Precipitation, MM = Missing Value Source: NWS Daily Summary

Daily Weather History Graph

Daily Weather History Graph

Search for Another Location

Airport or City:

Astronomy

Sep. 08, 2019 Rise Set
Actual Time 6:28 AM CDT 7:02 PM CDT
Civil Twilight 6:04 AM CDT 7:27 PM CDT
Nautical Twilight 5:35 AM CDT 7:55 PM CDT
Astronomical Twilight 5:06 AM CDT 8:24 PM CDT
Moon 3:51 PM CDT (9/8) 1:26 AM CDT (9/8)
Length of Visible Light 13h 22m
Length of Day
12h 34m
Waxing Gibbous, 75% of the Moon is Illuminated
Sep 8
Waxing Gibbous
Sep 13
Full
Sep 21
Last Quarter
Sep 28
New
Oct 5
First Quarter

Hourly Weather History & Observations

Time (CDT) Temp. Heat Index Dew Point Humidity Pressure Visibility Wind Dir Wind Speed Gust Speed Precip Events Conditions
12:56 AM 79.0 °F - 75.0 °F 88% 29.91 in 10.0 mi WNW 3.5 mph - N/A   Clear
1:56 AM 75.9 °F - 75.0 °F 97% 29.91 in 9.0 mi WNW 3.5 mph - N/A   Clear
2:56 AM 75.0 °F - 75.0 °F 100% 29.91 in 8.0 mi Calm Calm - N/A   Clear
3:56 AM 75.9 °F - 75.0 °F 97% 29.91 in 7.0 mi NW 3.5 mph - N/A   Clear
4:56 AM 73.9 °F - 73.9 °F 100% 29.91 in 5.0 mi Calm Calm - N/A   Clear
5:56 AM 73.0 °F - 73.0 °F 100% 29.93 in 4.0 mi Calm Calm - N/A   Clear
6:23 AM 73.0 °F - 73.0 °F 100% 29.98 in 0.8 mi Calm Calm - N/A   Mist
6:33 AM 73.0 °F - 73.0 °F 100% 29.99 in 0.2 mi Calm Calm - N/A Fog Fog
6:42 AM 73.0 °F - 73.0 °F 100% 29.99 in 1.0 mi Calm Calm - N/A   Mist
6:47 AM 73.0 °F - 73.0 °F 100% 30.00 in 2.0 mi Calm Calm - N/A   Partly Cloudy
6:56 AM 73.0 °F - 73.0 °F 100% 29.96 in 2.5 mi Calm Calm - N/A   Clear
7:19 AM 75.0 °F - 75.0 °F 100% 30.01 in 3.0 mi Calm Calm - N/A   Clear
7:56 AM 79.0 °F - 78.1 °F 97% 29.98 in 5.0 mi Calm Calm - N/A   Clear
8:56 AM 86.0 °F 99.3 °F 79.0 °F 79% 29.97 in 10.0 mi Calm Calm - N/A   Clear
9:56 AM 90.0 °F 104.5 °F 78.1 °F 68% 29.98 in 10.0 mi Calm Calm - N/A   Clear
10:56 AM 93.0 °F 106.7 °F 77.0 °F 59% 29.97 in 10.0 mi Variable 3.5 mph - N/A   Clear
11:56 AM 93.9 °F 103.4 °F 73.0 °F 51% 29.96 in 10.0 mi ESE 6.9 mph - N/A   Clear
12:56 PM 95.0 °F 105.2 °F 73.9 °F 50% 29.95 in 8.0 mi SW 3.5 mph - N/A   Partly Cloudy
1:56 PM 95.0 °F 105.2 °F 73.9 °F 50% 29.94 in 10.0 mi South 10.4 mph - N/A   Mostly Cloudy
2:56 PM 95.0 °F 106.7 °F 75.0 °F 52% 29.93 in 10.0 mi South 10.4 mph - N/A   Clear
3:56 PM 95.0 °F 105.2 °F 73.9 °F 50% 29.91 in 10.0 mi SSW 8.1 mph - N/A   Clear
4:56 PM 93.0 °F 100.1 °F 71.1 °F 49% 29.92 in 10.0 mi SSW 10.4 mph - N/A   Partly Cloudy
5:56 PM 90.0 °F 99.0 °F 73.9 °F 59% 29.92 in 10.0 mi SSW 10.4 mph - N/A   Clear
6:56 PM 86.0 °F 96.0 °F 75.9 °F 72% 29.93 in 10.0 mi South 8.1 mph - N/A   Clear
7:56 PM 84.0 °F 93.7 °F 77.0 °F 79% 29.94 in 10.0 mi SW 3.5 mph - N/A   Partly Cloudy
8:56 PM 82.9 °F 90.8 °F 75.9 °F 79% 29.96 in 10.0 mi WSW 4.6 mph - N/A   Clear
9:56 PM 82.0 °F 89.4 °F 75.9 °F 82% 29.97 in 10.0 mi WSW 4.6 mph - N/A   Clear
10:56 PM 78.1 °F - 75.9 °F 93% 29.97 in 9.0 mi Calm Calm - N/A   Clear
11:56 PM 77.0 °F - 75.9 °F 96% 29.97 in 8.0 mi Calm Calm - N/A   Clear